Location: Altenst�hlen
(53.5567°N, 8.9425°E)
Time: 20:22:13
(UTC+00:00)

Cosmos 468 Rocket - Pass Details

Date: 23 October 2019
Orbit: 745 x 779 km, 74.0° (Epoch: 13 November)

Event Time Altitude Azimuth Distance (km) Brightness Sun altitude
Rises 18:05:14 0° 183° (S) 3,239 7.2 -17.6°
Reaches altitude 10° 18:07:42 10° 178° (S) 2,312 6.4 -18.0°
Maximum altitude 18:12:40 45° 107° (ESE) 1,045 4.2 -18.7°
Enters shadow 18:15:42 22° 46° (NE) 1,636 5.3 -19.2°
